Погода в Рённе

Дания     55°06′00″N   14°42′08″E
темп.,
°C
ветер,
м/с
пор.,
м/с
влажн.,
%
обл.,
%
осадки,
мм/ч
давл.,
гПа
погр.,
м
12 августа, пт
пт1223:00+20в34655 0.0 102463
02:00+20в33711 0.0 102453
05:00+19в447197 0.0 102390
08:00+20вюв44740 0.0 1024208
11:00+19ююв55710 0.0 1024226
14:00+19ююв44720 0.0 1024140
17:00+20вюв12650 0.0 102373
20:00+22в44610 0.0 102237
13 августа, сб
сб1323:00+21в56738 0.0 102290
02:00+20в5575100 0.0 102167
05:00+20всв458297 0.0 102175
08:00+21в55770 0.0 102187
11:00+21вюв55805 0.0 102180
14:00+21вюв22811 0.0 102021
17:00+22в11795 0.0 101917
20:00+22в55758 0.0 101959
14 августа, вс
вс1423:00+21в458219 0.0 101958
02:00+20в568116 0.0 101877
05:00+20всв458318 0.0 101787
08:00+21всв5682100 0.0 1017107
11:00+21в688069 0.0 1016125
14:00+22в687298 0.0 1016116
17:00+22всв8106939 0.0 1014149
20:00+21всв811775 0.0 1013201
15 августа, пн
пн1523:00+21всв9147893 0.0 1012233
02:00+21в9138115 0.0 1011210
05:00+20всв6989100 0.0 1009173
08:00+21в6888100 0.0 1009149
11:00+21вюв6889100 0.0 1008132
14:00+22в5684100 0.0 100867
17:00+22всв687992 1.6 100687
20:00+21вюв9138493 2.4 1006190
16 августа, вт
вт1623:00+21в3385100 0.5 100634
02:00+21вюв6887100 0.6 1006109
05:00+21ююв578521 0.0 1005142
08:00+20юв678759 0.0 1006178
11:00+19ююв5593100 1.1 1007168
14:00+19ю449212 1.4 1007130
17:00+20ююз22896 0.0 100755
20:00+21ю22830 0.0 100815